Waarnemingen

Advertentie
Mijn weer
Volkel, Nederland (6375): temperatuur & dauwpunt: 05.12.2018 17:00:00 - 11.12.2018 17:00:00 (CET)Volkel, Nederland (6375): temperatuur 5cm: 05.12.2018 17:00:00 - 11.12.2018 17:00:00 (CET)Volkel, Nederland (6375): windsnelheid & windstoten: 05.12.2018 17:00:00 - 11.12.2018 17:00:00 (CET)Volkel, Nederland (6375): windrichting: 05.12.2018 17:00:00 - 11.12.2018 17:00:00 (CET)Volkel, Nederland (6375): luchtdruk: 05.12.2018 17:00:00 - 11.12.2018 17:00:00 (CET)Volkel, Nederland (6375): zicht: 05.12.2018 17:00:00 - 11.12.2018 17:00:00 (CET)Volkel, Nederland (6375): neerslag: 05.12.2018 17:00:00 - 11.12.2018 17:00:00 (CET)
Datum & Tijd tt [°C] td [°C] tt 5cm [°C] ff [km/u] ff [kn] fx [km/u] fx [kn] dd ppp [hPa] vv [km] rr [mm]
11.12.2018 17:00:00 - - - - - - - - - - -
11.12.2018 16:00:00 6,2 2,9 5,1 5 3 14 8 WNW 1024,1 10 0,0
11.12.2018 15:00:00 6,8 2,7 6,6 8 4 18 10 WNW 1024,1 10 0,0
11.12.2018 14:00:00 7,3 3,1 7,5 9 5 22 12 WNW 1024,1 10 0,0
11.12.2018 13:00:00 7,2 2,8 7,8 11 6 22 12 WNW 1024,4 10 0,0
11.12.2018 12:00:00 6,9 3,0 7,2 9 5 22 12 W 1024,6 10 0,0
11.12.2018 11:00:00 5,6 2,3 5,5 11 6 18 10 W 1024,6 10 0,0
11.12.2018 10:00:00 3,6 1,5 1,9 9 5 14 8 W 1024,5 10 0,0
11.12.2018 09:00:00 1,7 0,3 0,8 8 4 14 8 WZW 1024,3 10 0,0
11.12.2018 08:00:00 3,4 1,6 2,5 9 5 14 8 W 1024,1 10 0,0
11.12.2018 07:00:00 2,8 1,6 2,5 9 5 18 10 WZW 1024,1 10 0,1
11.12.2018 06:00:00 2,9 0,9 2,1 9 5 18 10 W 1024,2 10 0,0
11.12.2018 05:00:00 2,2 1,0 0,7 8 4 14 8 WZW 1023,8 10 0,0
11.12.2018 04:00:00 1,8 0,5 0,8 9 5 14 8 WZW 1024,3 10 0,0
11.12.2018 03:00:00 2,8 1,1 1,5 9 5 18 10 WZW 1024,2 10 0,0
11.12.2018 02:00:00 3,0 1,3 1,9 9 5 14 8 WZW 1024,1 10 0,0
11.12.2018 01:00:00 2,7 1,1 1,9 9 5 14 8 WZW 1024,4 10 0,0
11.12.2018 00:00:00 3,6 1,5 2,3 9 5 18 10 W 1024,1 10 0,0
10.12.2018 23:00:00 3,5 1,4 2,2 8 4 18 10 W 1023,8 10 0,0
10.12.2018 22:00:00 4,6 1,8 3,6 9 5 18 10 W 1023,9 10 0,0
10.12.2018 21:00:00 4,3 1,4 3,3 11 6 22 12 W 1023,7 10 0,0
10.12.2018 20:00:00 4,1 1,3 2,7 13 7 22 12 W 1023,6 10 0,0
10.12.2018 19:00:00 4,7 1,5 3,1 11 6 22 12 W 1023,8 10 0,0
10.12.2018 18:00:00 4,8 1,4 3,3 11 6 40 21 W 1023,4 10 0,0
10.12.2018 17:00:00 5,8 1,7 4,6 11 6 29 16 W 1023,1 10 0,0
10.12.2018 16:00:00 5,4 2,0 4,4 13 7 36 19 WNW 1022,5 10 0,0
10.12.2018 15:00:00 6,7 3,0 6,1 13 7 25 14 W 1022,0 10 0,0
10.12.2018 14:00:00 6,6 3,8 5,9 15 8 29 16 W 1021,8 10 0,0
10.12.2018 13:00:00 6,1 4,2 6,2 11 6 25 14 W 1021,9 10 0,1
10.12.2018 12:00:00 5,7 4,0 5,6 11 6 25 14 W 1022,0 10 0,4
10.12.2018 11:00:00 6,3 3,8 6,6 11 6 18 10 W 1022,0 10 0,0
10.12.2018 10:00:00 5,0 3,2 4,5 11 6 18 10 WZW 1021,4 10 0,0
10.12.2018 09:00:00 3,7 2,2 2,0 9 5 22 12 WZW 1021,1 10 0,0
10.12.2018 08:00:00 3,7 2,0 2,0 9 5 18 10 WZW 1020,5 10 0,0
10.12.2018 07:00:00 3,7 1,7 3,0 9 5 22 12 W 1020,0 10 0,0
10.12.2018 06:00:00 4,5 2,6 3,4 13 7 22 12 W 1019,4 10 0,0
10.12.2018 05:00:00 5,1 2,8 4,0 11 6 25 14 W 1019,1 10 0,0
10.12.2018 04:00:00 4,5 2,9 2,7 11 6 18 10 WZW 1018,5 10 0,0
10.12.2018 03:00:00 4,9 3,4 4,3 8 4 29 16 W 1018,1 10 0,4
10.12.2018 02:00:00 5,5 2,2 4,7 16 9 43 23 W 1017,3 6 0,4
10.12.2018 01:00:00 5,3 2,5 4,2 16 9 36 19 WNW 1016,7 10 0,0
10.12.2018 00:00:00 5,7 3,0 4,1 11 6 22 12 W 1015,9 10 0,0
09.12.2018 23:00:00 5,5 3,7 4,6 15 8 25 14 W 1014,7 10 0,1
09.12.2018 22:00:00 6,3 3,4 4,8 13 7 25 14 W 1013,8 10 0,0
09.12.2018 21:00:00 6,5 4,1 5,8 11 6 29 16 WNW 1012,9 9 0,1
09.12.2018 20:00:00 6,9 4,0 6,0 15 8 29 16 W 1011,7 10 0,0
09.12.2018 19:00:00 7,1 5,0 6,2 13 7 25 14 W 1010,3 10 0,0
09.12.2018 18:00:00 7,0 4,7 6,5 16 9 32 18 W 1008,6 10 0,2
09.12.2018 17:00:00 7,9 5,4 7,1 16 9 36 19 W 1006,9 10 0,2
09.12.2018 16:00:00 8,4 4,5 7,7 16 9 47 25 WNW 1005,2 10 0,0
09.12.2018 15:00:00 9,1 5,3 8,8 21 11 43 23 W 1003,2 10 0,0
09.12.2018 14:00:00 8,7 6,7 8,6 13 7 29 16 W 1001,8 10 0,2
09.12.2018 13:00:00 8,0 6,8 8,0 13 7 25 14 W 1000,8 10 0,1
09.12.2018 12:00:00 7,5 6,6 7,2 13 7 40 21 WNW 999,7 10 3,0
09.12.2018 11:00:00 9,4 6,8 9,1 22 12 40 21 W 998,9 10 0,0
09.12.2018 10:00:00 8,9 6,5 8,3 24 13 47 25 W 998,1 10 0,0
09.12.2018 09:00:00 9,0 6,4 8,3 26 14 43 23 WZW 997,2 10 0,1
09.12.2018 08:00:00 9,0 5,8 8,3 34 18 54 29 W 996,3 10 0,1
09.12.2018 07:00:00 8,9 6,3 8,2 34 18 54 29 W 995,8 9 0,4
09.12.2018 06:00:00 8,8 6,7 8,0 31 17 50 27 W 995,3 10 1,3
09.12.2018 05:00:00 8,6 6,7 8,0 26 14 50 27 W 994,8 10 0,8
09.12.2018 04:00:00 9,4 5,7 8,6 31 17 54 29 W 994,5 10 0,0
09.12.2018 03:00:00 9,6 5,8 8,8 31 17 65 35 WZW 994,5 10 0,2
09.12.2018 02:00:00 9,0 6,6 8,5 34 18 54 29 W 994,0 10 0,1
09.12.2018 01:00:00 9,0 6,7 7,6 22 12 61 33 W 994,0 6 1,0
09.12.2018 00:00:00 10,6 6,8 9,8 34 18 61 33 WZW 993,3 10 0,0
08.12.2018 23:00:00 10,9 7,3 9,9 37 20 61 33 WZW 993,2 10 0,1
08.12.2018 22:00:00 10,2 8,3 9,6 34 18 47 25 WZW 993,4 10 0,1
08.12.2018 21:00:00 9,5 7,4 9,0 41 22 65 35 ZW 994,4 10 2,0
08.12.2018 20:00:00 9,2 8,6 9,0 31 17 54 29 ZW 996,3 3,9 4,0
08.12.2018 19:00:00 9,1 8,2 8,7 34 18 47 25 ZZW 998,1 9 1,4
08.12.2018 18:00:00 9,3 7,0 8,5 24 13 43 23 ZW 999,7 10 0,1
08.12.2018 17:00:00 9,7 5,4 8,8 29 16 50 27 WZW 1001,3 10 0,0
08.12.2018 16:00:00 10,1 5,0 9,1 31 17 50 27 WZW 1002,0 10 0,0
08.12.2018 15:00:00 10,1 5,0 9,5 39 21 61 33 WZW 1002,2 10 0,0
08.12.2018 14:00:00 10,2 5,2 9,6 34 18 54 29 WZW 1002,4 10 0,0
08.12.2018 13:00:00 10,0 5,1 9,2 31 17 50 27 WZW 1002,4 10 0,0
08.12.2018 12:00:00 9,2 5,7 8,6 31 17 50 27 WZW 1002,6 10 0,3
08.12.2018 11:00:00 7,7 6,6 7,4 29 16 54 29 ZW 1002,4 4,0 0,6
08.12.2018 10:00:00 7,9 6,3 7,5 35 19 50 27 WZW 1001,8 7 0,9
08.12.2018 09:00:00 7,6 6,1 7,2 41 22 58 31 ZW 1001,7 8 0,5
08.12.2018 08:00:00 7,3 6,0 6,9 35 19 50 27 ZW 1002,2 10 0,6
08.12.2018 07:00:00 7,3 5,4 6,8 35 19 50 27 ZW 1002,2 10 0,3
08.12.2018 06:00:00 7,0 4,9 6,5 34 18 50 27 ZW 1002,8 10 0,0
08.12.2018 05:00:00 6,8 4,9 6,4 34 18 50 27 ZW 1003,1 10 0,4
08.12.2018 04:00:00 6,5 4,2 6,0 31 17 47 25 ZW 1003,7 10 0,1
08.12.2018 03:00:00 6,2 3,6 5,5 31 17 43 23 ZW 1004,3 10 0,0
08.12.2018 02:00:00 5,7 3,3 4,8 31 17 47 25 ZW 1004,6 10 0,0
08.12.2018 01:00:00 5,9 3,7 5,2 28 15 36 19 ZW 1004,6 10 0,0
08.12.2018 00:00:00 5,9 4,0 5,3 24 13 36 19 ZW 1004,4 10 0,0
07.12.2018 23:00:00 6,2 4,5 5,4 21 11 36 19 ZW 1004,0 10 0,0
07.12.2018 22:00:00 6,7 4,1 5,7 21 11 40 21 WZW 1003,1 10 0,0
07.12.2018 21:00:00 7,1 4,1 5,9 18 10 36 19 WZW 1002,2 10 0,0
07.12.2018 20:00:00 7,4 5,6 6,9 21 11 29 16 WZW 1001,1 10 0,0
07.12.2018 19:00:00 7,6 5,2 7,0 13 7 40 21 W 999,9 10 0,5
07.12.2018 18:00:00 8,4 6,8 8,0 18 10 61 33 WNW 998,9 10 1,4
07.12.2018 17:00:00 10,6 9,5 10,1 31 17 54 29 ZZW 996,6 10 0,9
07.12.2018 16:00:00 10,7 9,5 10,3 34 18 54 29 Z 997,6 10 1,1
07.12.2018 15:00:00 11,3 9,6 11,0 31 17 50 27 ZZW 999,2 10 0,0
07.12.2018 14:00:00 11,9 10,0 11,4 35 19 54 29 ZZW 1000,5 8 0,1
07.12.2018 13:00:00 12,1 9,9 11,6 35 19 50 27 ZZW 1002,4 10 0,0
07.12.2018 12:00:00 11,7 10,1 11,4 31 17 47 25 ZZW 1004,3 10 0,0
07.12.2018 11:00:00 11,3 10,4 11,0 31 17 50 27 ZZW 1005,8 10 0,0
07.12.2018 10:00:00 11,1 10,5 10,9 34 18 43 23 ZZW 1006,8 6 0,0
07.12.2018 09:00:00 11,0 10,6 10,8 29 16 43 23 ZZW 1007,7 2,6 0,7
07.12.2018 08:00:00 11,1 10,7 10,8 28 15 43 23 ZZW 1008,4 3,3 0,4
07.12.2018 07:00:00 11,2 10,7 10,9 28 15 40 21 ZZW 1009,0 4,9 0,3
07.12.2018 06:00:00 11,2 10,8 10,9 28 15 43 23 ZZW 1009,9 3,3 1,6
07.12.2018 05:00:00 11,2 10,8 10,9 28 15 43 23 ZW 1010,6 10 1,7
07.12.2018 04:00:00 11,2 10,8 11,0 31 17 43 23 ZW 1011,5 3,5 0,2
07.12.2018 03:00:00 11,2 10,8 11,0 29 16 43 23 ZW 1012,2 2,9 0,2
07.12.2018 02:00:00 11,2 10,8 11,0 28 15 43 23 ZW 1012,9 4,1 0,1
07.12.2018 01:00:00 11,3 10,7 11,0 28 15 40 21 ZW 1013,5 8 0,0
07.12.2018 00:00:00 11,6 10,6 11,2 31 17 47 25 ZW 1014,1 10 0,0
06.12.2018 23:00:00 11,5 10,8 11,1 29 16 40 21 ZW 1014,3 6 0,2
06.12.2018 22:00:00 11,6 11,2 11,4 24 13 36 19 ZW 1014,8 2,6 0,0
06.12.2018 21:00:00 12,3 10,8 11,9 26 14 36 19 ZW 1014,8 10 0,0
06.12.2018 20:00:00 12,5 10,8 12,0 26 14 36 19 ZW 1015,1 10 0,0
06.12.2018 19:00:00 12,4 10,8 12,0 28 15 36 19 ZW 1014,9 10 0,0
06.12.2018 18:00:00 12,2 10,9 11,8 24 13 32 18 ZW 1015,3 10 0,0
06.12.2018 17:00:00 11,8 11,1 11,4 22 12 29 16 ZW 1015,4 9 0,0
06.12.2018 16:00:00 11,7 11,0 11,5 21 11 32 18 ZZW 1015,4 7 0,0
06.12.2018 15:00:00 12,0 10,6 11,7 22 12 29 16 ZW 1015,6 10 0,0
06.12.2018 14:00:00 12,0 10,6 11,7 21 11 32 18 ZW 1015,5 10 0,0
06.12.2018 13:00:00 12,0 10,9 11,9 21 11 32 18 ZW 1016,0 10 0,0
06.12.2018 12:00:00 11,7 11,1 11,5 22 12 32 18 ZW 1016,0 5 0,0
06.12.2018 11:00:00 11,5 11,2 11,4 13 7 29 16 ZW 1015,7 3,5 0,0
06.12.2018 10:00:00 11,5 11,4 11,3 18 10 22 12 ZW 1015,2 3,2 0,0
06.12.2018 09:00:00 11,1 11,0 10,8 15 8 22 12 ZW 1014,7 2,2 0,2
06.12.2018 08:00:00 10,8 10,7 10,6 16 9 25 14 ZW 1014,3 2,8 0,0
06.12.2018 07:00:00 10,4 10,2 10,2 16 9 25 14 ZW 1013,4 5 0,0
06.12.2018 06:00:00 10,1 9,9 9,8 15 8 22 12 ZW 1013,0 3,7 0,1
06.12.2018 05:00:00 9,8 9,4 9,5 16 9 25 14 ZZW 1012,6 4,2 0,1
06.12.2018 04:00:00 9,7 9,2 9,2 16 9 25 14 Z 1012,5 10 0,0
06.12.2018 03:00:00 9,1 8,8 8,7 15 8 22 12 Z 1012,6 6 0,1
06.12.2018 02:00:00 8,6 7,9 8,3 16 9 25 14 ZZW 1012,6 10 0,0
06.12.2018 01:00:00 8,4 7,3 8,0 13 7 22 12 Z 1012,9 10 0,0
06.12.2018 00:00:00 8,1 6,8 7,7 13 7 22 12 ZZO 1013,3 10 0,0
05.12.2018 23:00:00 7,8 6,6 7,4 13 7 25 14 ZZO 1013,7 9 0,3
05.12.2018 22:00:00 7,6 6,1 7,2 15 8 22 12 ZZO 1014,1 10 0,1
05.12.2018 21:00:00 7,6 6,0 7,0 13 7 25 14 ZZO 1014,5 10 0,0
05.12.2018 20:00:00 7,5 6,3 7,1 15 8 25 14 ZO 1015,0 10 0,0
05.12.2018 19:00:00 7,2 6,6 6,9 18 10 29 16 ZO 1015,8 6 0,8
05.12.2018 18:00:00 7,3 6,2 6,8 16 9 22 12 ZO 1016,6 7 0,0
05.12.2018 17:00:00 6,8 6,1 6,4 15 8 22 12 ZO 1017,5 9 0,1

tt = temperatuur
td = dauwpunt
tt 5cm = temperatuur 5cm
ff = windsnelheid
fx = windstoten
dd = windrichting
ppp = luchtdruk
vv = zicht
rr = neerslag

Weerstations in de omgeving